Location: Boss Branch
(32.3799°N, 97.2508°W)
Time: 14:12:01
(UTC+00:00)

Vanguard 2 Rocket - All Passes

Search period start: 09 November 2024 00:00
Search period end: 19 November 2024 00:00
Orbit: 553 x 3297 km, 32.9° (Epoch: 08 November)

Date Brightness Start Highest point End Pass type
(mag) Time Alt. Az. Time Alt. Az. Time Alt. Az.
09 Nov - 11:09:25 10° S 11:18:30 20° SE 11:29:56 10° E visible
09 Nov - 13:17:51 10° SW 13:32:53 55° SSE 13:52:13 10° ENE daylight
09 Nov - 15:31:53 10° WSW 15:50:42 85° SSE 16:09:58 10° E daylight
09 Nov - 17:49:21 10° W 18:09:59 90° NNE 18:25:49 10° E daylight
09 Nov - 20:08:32 10° WNW 20:27:20 65° SSW 20:39:14 10° SE daylight
09 Nov - 22:29:52 10° W 22:40:51 24° SW 22:48:33 10° S daylight
10 Nov - 12:14:55 10° SSW 12:27:42 41° SE 12:45:12 10° ENE visible
10 Nov - 14:27:07 10° WSW 14:44:06 77° SSE 15:04:14 10° ENE daylight
10 Nov - 16:43:12 10° W 17:03:14 88° N 17:21:06 10° E daylight
10 Nov - 19:01:37 10° WNW 19:21:50 77° SSW 19:35:48 10° ESE daylight
10 Nov - 21:21:39 10° WNW 21:37:03 39° SW 21:47:07 10° SSE daylight
11 Nov - 11:13:00 10° S 11:23:13 28° SE 11:37:12 10° E visible
11 Nov - 13:23:06 10° SW 13:38:01 65° SSE 13:57:57 10° ENE daylight
11 Nov - 15:37:39 10° W 15:56:19 90° S 16:15:48 10° E daylight
11 Nov - 17:55:05 10° W 18:15:39 86° SSW 18:31:43 10° ESE daylight
11 Nov - 20:14:12 10° WNW 20:32:32 54° SW 20:44:38 10° SE daylight
11 Nov - 22:37:18 10° W 22:45:38 17° SW 22:52:08 10° SSW daylight
12 Nov - 10:12:57 10° SSE 10:19:20 16° SE 10:27:15 10° E visible
12 Nov - 12:19:50 10° SW 12:32:37 51° SE 12:51:06 10° ENE visible
12 Nov - 14:32:47 10° WSW 14:49:35 84° SSE 15:09:57 10° E daylight
12 Nov - 16:49:01 10° W 17:08:56 89° N 17:27:00 10° E daylight
12 Nov - 19:07:15 10° WNW 19:27:13 68° SSW 19:41:25 10° SE daylight
12 Nov - 21:27:53 10° W 21:41:54 30° SW 21:51:43 10° S daylight
13 Nov - 11:17:23 10° SSW 11:27:59 37° SE 11:43:35 10° E visible
13 Nov - 13:28:35 10° WSW 13:43:18 75° SSE 14:03:35 10° ENE daylight
13 Nov - 15:43:31 10° W 16:01:59 88° N 16:21:38 10° E daylight
13 Nov - 18:00:47 10° WNW 18:21:10 80° SSW 18:37:28 10° ESE daylight
13 Nov - 20:19:59 10° WNW 20:37:30 44° SW 20:49:42 10° SSE daylight
13 Nov - 22:48:03 10° WSW 22:50:22 10° SW 22:52:32 10° SW daylight
14 Nov - 10:16:05 10° S 10:24:03 23° SE 10:35:05 10° E visible
14 Nov - 12:25:05 10° SW 12:37:42 62° SSE 12:56:46 10° ENE visible
14 Nov - 14:38:35 10° WSW 14:55:10 89° SSE 15:15:40 10° E daylight
14 Nov - 16:54:49 10° W 17:14:33 87° SSW 17:32:48 10° ESE daylight
14 Nov - 19:12:53 10° WNW 19:32:22 58° SSW 19:46:45 10° SE daylight
14 Nov - 21:34:47 10° W 21:46:35 22° SW 21:55:36 10° S daylight
15 Nov - 09:18:23 10° SE 09:20:37 11° SE 09:23:04 10° ESE visible
15 Nov - 11:22:17 10° SSW 11:32:52 46° SE 11:49:30 10° ENE visible
15 Nov - 13:34:17 10° WSW 13:48:45 83° SSE 14:09:11 10° E daylight
15 Nov - 15:49:22 10° W 16:07:39 89° N 16:27:25 10° E daylight
15 Nov - 18:06:26 10° WNW 18:26:30 71° SSW 18:42:59 10° SE daylight
15 Nov - 20:26:03 10° W 20:42:17 35° SW 20:54:18 10° SSE daylight
16 Nov - 10:20:18 10° SSW 10:28:49 31° SE 10:41:42 10° E visible
16 Nov - 12:30:35 10° WSW 12:42:58 72° SSE 13:02:19 10° ENE visible
16 Nov - 14:44:28 10° W 15:00:49 88° N 15:21:22 10° E daylight
16 Nov - 17:00:32 10° W 17:20:02 81° SSW 17:38:26 10° ESE daylight
16 Nov - 19:18:38 10° WNW 19:37:18 48° SW 19:51:43 10° SSE daylight
16 Nov - 21:43:09 10° W 21:51:14 15° SW 21:58:05 10° SSW daylight
17 Nov - 09:19:43 10° SSE 09:25:22 17° SE 09:32:47 10° E visible
17 Nov - 11:27:32 10° SW 11:37:57 57° SSE 11:55:09 10° ENE visible
17 Nov - 13:40:07 10° WSW 13:54:19 88° S 14:14:48 10° E daylight
17 Nov - 15:55:11 10° W 16:13:15 88° SSW 16:33:07 10° ESE daylight
17 Nov - 18:12:06 10° WNW 18:31:37 62° SSW 18:48:13 10° SE daylight
17 Nov - 20:32:39 10° W 20:46:56 26° SW 20:58:16 10° S daylight
18 Nov - 10:25:06 10° SSW 10:33:43 40° SE 10:47:44 10° ENE visible
18 Nov - 12:36:18 10° WSW 12:48:25 81° SSE 13:07:49 10° E visible
18 Nov - 14:50:21 10° W 15:06:28 88° N 15:27:03 10° E daylight
18 Nov - 17:06:14 10° WNW 17:25:20 73° SSW 17:43:51 10° ESE daylight
18 Nov - 19:24:37 10° W 19:42:04 39° SW 19:56:16 10° SSE daylight
